Burns, OR

2:57 AM PDT on September 24, 2017 (GMT -0700)
Burns Municipal

Weather History for KBNO - November, 2012

Change the Weather History Date:

Thursday, November 1, 2012

  Actual Average Record
Temperature  
Mean Temperature 40 °F 39 °F  
Max Temperature 57 °F 53 °F 70 °F (1949)
Min Temperature 23 °F 25 °F -1 °F (2002)
Degree Days  
Heating Degree Days 25 26  
Month to date heating degree days 25 26  
Since 1 July heating degree days 850 1076  
Cooling Degree Days 0 0  
Month to date cooling degree days 0 0  
Year to date cooling degree days 309 215  
Moisture  
Dew Point 31 °F    
Average Humidity 65    
Maximum Humidity 92    
Minimum Humidity 38    
Precipitation  
Precipitation T in 0.03 in 0.78 in (1948)
Month to date precipitation T 0.03  
Year to date precipitation 7.20 8.23  
Sea Level Pressure  
Sea Level Pressure 30.00 in    
Wind  
Wind Speed 6 mph (SW)    
Max Wind Speed 17 mph    
Max Gust Speed 23 mph    
Visibility 10 miles    
Events      
T = Trace of Precipitation, MM = Missing Value Source: NWS Daily Summary

Daily Weather History Graph

Daily Weather History Graph

Search for Another Location

Airport or City:

Trip Planner

Search our weather history database for the weather conditions in past years. The results will help you decide how hot, cold, wet, or windy it might be!

Date:

Astronomy

Nov. 01, 2012 Rise Set
Actual Time 7:32 AM PDT 5:45 PM PDT
Civil Twilight 7:02 AM PDT 6:15 PM PDT
Nautical Twilight 6:28 AM PDT 6:49 PM PDT
Astronomical Twilight 5:55 AM PDT 7:22 PM PDT
Moon 7:43 PM PDT (11/1) 10:12 AM PDT (11/1)
Length of Visible Light 11h 13m
Length of Day
10h 13m
Waning Gibbous, 92% of the Moon is Illuminated
Nov 1
Waning Gibbous
Nov 6
Last Quarter
Nov 13
New
Nov 20
First Quarter
Nov 28
Full

Hourly Weather History & Observations

Time (PDT) Temp. Windchill Dew Point Humidity Pressure Visibility Wind Dir Wind Speed Gust Speed Precip Events Conditions
12:53 AM 39.0 °F 34.0 °F 35.1 °F 86% 29.90 in 10.0 mi West 6.9 mph - N/A   Clear
1:53 AM 44.1 °F 37.4 °F 34.0 °F 68% 29.88 in 10.0 mi SSW 13.8 mph 21.9 mph N/A   Clear
2:53 AM 35.1 °F 28.6 °F 30.9 °F 85% 29.91 in 10.0 mi SSE 8.1 mph - N/A   Clear
3:53 AM 34.0 °F 28.0 °F 28.9 °F 82% 29.93 in 10.0 mi SSW 6.9 mph - N/A   Mostly Cloudy
4:53 AM 34.0 °F 28.8 °F 30.9 °F 89% 29.93 in 10.0 mi ENE 5.8 mph - N/A   Mostly Cloudy
5:53 AM 35.1 °F 31.0 °F 32.0 °F 89% 29.94 in 10.0 mi North 4.6 mph - N/A   Overcast
6:53 AM 36.0 °F - 32.0 °F 86% 29.94 in 10.0 mi Calm Calm - N/A   Overcast
7:53 AM 30.9 °F - 28.9 °F 92% 29.98 in 10.0 mi Calm Calm - N/A   Clear
8:53 AM 42.1 °F - 36.0 °F 79% 29.98 in 10.0 mi Calm Calm - N/A   Mostly Cloudy
9:53 AM 46.9 °F - 35.1 °F 63% 29.98 in 10.0 mi Variable 5.8 mph - N/A   Scattered Clouds
10:53 AM 52.0 °F - 37.0 °F 57% 29.97 in 10.0 mi SSW 9.2 mph - N/A   Partly Cloudy
11:53 AM 54.0 °F - 35.1 °F 49% 29.98 in 10.0 mi SSW 13.8 mph 23.0 mph N/A   Mostly Cloudy
12:53 PM 53.1 °F - 34.0 °F 48% 29.98 in 10.0 mi SSW 10.4 mph - 0.00 in   Overcast
1:53 PM 54.0 °F - 32.0 °F 43% 29.97 in 10.0 mi SSW 9.2 mph - N/A   Mostly Cloudy
2:53 PM 55.0 °F - 32.0 °F 42% 29.99 in 10.0 mi WSW 17.3 mph 21.9 mph N/A   Overcast
3:53 PM 55.9 °F - 30.9 °F 39% 30.00 in 10.0 mi WSW 15.0 mph - N/A   Overcast
4:53 PM 53.1 °F - 30.9 °F 43% 30.01 in 10.0 mi WSW 12.7 mph - N/A   Mostly Cloudy
5:53 PM 46.0 °F 41.9 °F 30.9 °F 56% 30.04 in 10.0 mi WSW 8.1 mph - N/A   Scattered Clouds
6:53 PM 39.9 °F - 30.0 °F 68% 30.07 in 10.0 mi Calm Calm - N/A   Clear
7:53 PM 35.1 °F - 28.0 °F 76% 30.11 in 10.0 mi Calm Calm - N/A   Clear
8:53 PM 30.0 °F 23.2 °F 26.1 °F 85% 30.11 in 10.0 mi West 6.9 mph - N/A   Clear
9:53 PM 30.9 °F - 27.0 °F 85% 30.11 in 10.0 mi Calm Calm - N/A   Clear
10:53 PM 28.0 °F 24.2 °F 24.1 °F 85% 30.12 in 10.0 mi NE 3.5 mph - N/A   Clear
11:53 PM 25.0 °F - 21.9 °F 88% 30.12 in 10.0 mi Calm Calm - N/A   Clear